Regional Weather Roundup
Issued by NWS Goodland, KS

Home | Current Version | Previous Version | Graphics & Text | Print | Product List | Glossary On
Versions: 1 2 3 4 5 6 7 8 9 10 11 12 13 14 15 16 17 18 19 20 21 22 23 24 25 26 27 28 29 30 31 32 33 34 35 36 37 38 39 40 41 42 43 44 45 46 47 48 49 50
000
ASUS43 KGLD 301159
RWRGLD

GOODLAND FORECAST AREA HOURLY WEATHER ROUNDUP
NATIONAL WEATHER SERVICE GOODLAND KS
600 AM MDT TUE AUG 30 2016

...OFFICIAL OBSERVATIONS...

CITY           SKY/WX    TMP DP  RH WIND       PRES   REMARKS
GOODLAND KS    FOG       57  57 100 S6        30.26S VSB 1/2
HILL CITY KS   CLOUDY    66  65  96 CALM      30.22R
IMPERIAL NEB   MOCLDY    61  59  93 CALM      30.24S
MCCOOK NEB     FOG       66  65  96 E3        30.23R VSB 3/4
AKRON CO       PTCLDY    54  50  86 W7        30.29S
BURLINGTON CO  FOG       61  59  93 W7        30.28S VSB 1/4
LIMON CO       PTCLDY    48  47  96 N6        30.34S
$$

...UNOFFICIAL OBSERVATIONS...

CITY           SKY/WX    TMP DP  RH WIND       PRES   REMARKS
COLBY KS       LGT RAIN  63  63 100 CALM      30.26S
LENORA KS        N/A     65  32  29 MISG        N/A
NORTON KS      CLOUDY    64  63  94 SE3       30.22S FOG
SHARON SPRINGS   N/A     62  60  95 CALM        N/A
TRENTON NEB      N/A     66  32  28 MISG        N/A
YUMA CO          N/A     53  50  90 CALM        N/A
$$



USA.gov is the U.S. government's official web portal to all federal, state and local government web resources and services.